CDT,Max TemperatureF,Mean TemperatureF,Min TemperatureF,Max Dew PointF,MeanDew PointF,Min DewpointF,Max Humidity, Mean Humidity, Min Humidity, Max Sea Level PressureIn, Mean Sea Level PressureIn, Min Sea Level PressureIn, Max VisibilityMiles, Mean VisibilityMiles, Min VisibilityMiles, Max Wind SpeedMPH, Mean Wind SpeedMPH, Max Gust SpeedMPH,PrecipitationIn, CloudCover, Events, WindDirDegrees
2012-8-1,88,76,66,70,63,58,88,70,38,29.91,29.83,29.79,10,10,10,16,7,18,0.04,0,,251
2012-8-2,82,71,60,61,57,52,93,63,35,29.91,29.87,29.85,10,10,10,10,5,,0.00,0,,327
2012-8-3,82,72,62,64,61,59,94,78,52,29.97,29.84,29.69,10,8,1,20,9,29,1.15,5,Rain,110
2012-8-4,73,64,55,63,57,52,94,81,53,30.03,29.82,29.73,10,10,5,18,10,26,0.02,5,Rain,263
2012-8-5,73,60,46,54,50,45,97,69,44,30.17,30.11,30.06,10,10,10,17,8,22,0.01,0,,264
2012-8-6,86,70,55,64,57,51,87,63,37,30.07,30.00,29.94,10,10,10,12,6,18,0.00,0,,244
2012-8-7,79,66,55,61,54,49,87,62,37,30.06,30.03,29.98,10,10,10,9,3,,0.05,1,Rain,348
2012-8-8,73,66,60,63,61,58,96,86,59,30.06,30.04,29.99,10,9,2,6,2,,0.21,7,Rain,99
2012-8-9,72,64,57,59,54,49,96,74,45,30.20,30.09,30.03,10,10,6,14,9,18,0.01,5,,4
2012-8-10,73,60,46,53,49,44,93,66,35,30.25,30.19,30.12,10,10,2,9,4,16,0.00,0,,82
2012-8-11,73,59,46,55,49,43,93,71,44,30.13,30.08,30.02,10,10,2,10,2,,0.00,0,,177
2012-8-12,73,64,55,58,55,53,93,76,53,30.03,30.02,29.99,10,10,10,9,2,,0.00,0,,271
2012-8-13,75,63,53,58,52,46,100,74,40,30.06,30.03,30.00,10,9,1,12,5,16,0.00,3,,324
2012-8-14,75,60,46,56,50,45,93,69,40,30.02,29.95,29.87,10,9,2,6,1,,0.00,1,,213
2012-8-15,80,68,57,66,59,50,94,79,58,29.86,29.75,29.66,10,8,0,23,10,29,0.53,5,Fog-Rain,230
2012-8-16,66,58,46,54,47,40,88,71,38,30.09,29.94,29.83,10,10,7,21,16,31,0.01,6,Rain,310
2012-8-17,71,54,39,50,44,37,93,68,41,30.14,30.09,30.02,10,10,10,12,5,,0.00,0,,290
2012-8-18,78,64,50,55,49,46,90,63,34,30.02,29.99,29.94,10,10,10,20,5,34,0.03,3,,308
2012-8-19,72,59,46,52,44,38,97,65,30,30.09,30.05,30.02,10,9,2,9,3,,0.01,0,,2
2012-8-20,75,58,41,49,43,36,93,60,27,30.06,30.03,30.00,10,10,10,7,2,,0.00,0,,308
2012-8-21,80,62,45,54,50,41,90,63,38,30.06,30.00,29.94,10,10,10,15,4,20,0.00,0,,216
2012-8-22,87,70,54,59,54,50,86,60,34,29.95,29.90,29.83,10,10,10,18,5,,0.00,0,,139
2012-8-23,89,74,61,64,60,57,90,66,37,29.82,29.78,29.75,10,10,10,13,7,,0.00,0,,172
2012-8-24,91,74,57,66,61,53,100,74,28,29.82,29.78,29.74,10,7,0,13,3,,0.00,0,Fog,172
2012-8-25,78,68,55,65,59,47,87,69,36,29.94,29.84,29.76,10,10,10,15,8,17,0.00,5,,234
2012-8-26,82,66,51,55,48,42,88,57,26,30.05,29.97,29.92,10,10,10,20,5,26,0.00,0,,269
2012-8-27,81,65,50,55,52,48,93,62,36,30.17,30.12,30.06,10,10,10,7,1,,0.00,0,,35
2012-8-28,82,68,54,59,57,51,90,67,44,30.14,30.07,29.99,10,10,10,15,5,20,0.01,1,Rain,124
2012-8-29,90,76,63,65,62,59,90,67,39,29.99,29.85,29.70,10,10,10,16,7,22,0.00,0,,129
2012-8-30,81,68,54,63,55,47,87,61,31,30.00,29.80,29.65,10,10,9,16,6,21,0.00,0,,355
2012-8-31,82,64,45,52,45,36,90,55,20,30.16,30.12,30.02,10,10,10,10,2,20,0.00,0,,84